1537138801.12,11878,18.94,74586.3,2.97,-19.61,-19.61,0,*76
1537138802.35,11879,18.94,74586.3,2.95,-19.75,-19.65,0,*74
1537138803.6,11880,18.94,74590.0,2.95,-19.65,-19.61,0,*77
1537138804.86,11881,18.94,74594.0,3.01,-19.57,-19.57,0,*7E
1537138806.12,11882,18.94,74590.5,2.95,-19.27,-19.31,0,*76
1537138807.35,11883,18.94,74586.0,2.95,-19.17,-19.27,0,*73
1537138808.61,11884,18.94,74586.3,2.95,-19.27,-19.31,0,*70
1537138809.86,11885,18.94,74580.3,2.95,-19.31,-19.31,0,*76
1537138811.11,11886,18.94,74580.8,2.97,-19.31,-19.47,0,*76
1537138812.4,11887,18.94,74590.3,2.97,-19.31,-19.31,0,*76
1537138813.66,11888,18.94,74588.3,3.01,-19.27,-19.41,0,*77
1537138814.93,11889,18.94,74588.8,2.97,-19.23,-19.23,0,*78
1537138816.21,11890,18.88,74584.3,2.97,-19.41,-19.31,0,*77
1537138817.41,11891,18.94,74590.0,2.95,-19.51,-19.51,0,*73
1537138818.7,11892,18.94,74590.5,2.97,-19.27,-19.27,0,*72
1537138819.9,11893,18.94,74590.5,2.95,-19.47,-19.47,0,*71
1537138821.1,11894,18.94,74590.8,2.95,-19.37,-19.47,0,*71
1537138822.33,11895,18.94,74590.5,2.95,-19.27,-19.17,0,*74
1537138823.56,11896,18.94,74584.8,2.93,-19.17,-19.17,0,*72
1537138824.79,11897,18.94,74588.3,2.95,-19.17,-19.31,0,*71
1537138826.06,11898,18.94,74584.8,2.97,-19.41,-19.31,0,*7F
1537138827.32,11899,18.94,74584.8,2.95,-19.31,-19.27,0,*7C
1537138828.54,11900,18.94,74584.8,2.95,-19.17,-19.31,0,*7E
1537138829.75,11901,18.88,74584.3,2.95,-19.37,-19.37,0,*7B
1537138830.98,11902,18.94,74586.8,2.93,-19.37,-19.37,0,*7E
1537138832.21,11903,18.88,74582.0,2.95,-19.13,-19.27,0,*7E
1537138833.44,11904,18.94,74588.0,2.93,-19.13,-19.17,0,*7C
1537138834.64,11905,18.94,74586.8,2.95,-18.73,-18.73,0,*7F
1537138835.83,11906,18.94,74586.5,2.95,-18.83,-18.83,0,*7C
1537138837.05,11907,18.94,74580.3,2.93,-18.83,-18.83,0,*7B
1537138838.24,11908,18.88,74582.5,2.95,-18.73,-18.83,0,*7D
1537138839.46,11909,18.94,74580.3,2.97,-18.79,-18.79,0,*71
1537138840.69,11910,18.88,74580.5,2.97,-18.65,-18.65,0,*79
1537138841.92,11911,18.94,74580.0,2.97,-18.41,-18.49,0,*70
1537138843.14,11912,18.94,74582.5,3.01,-18.49,-18.55,0,*78
1537138844.34,11913,18.94,74576.3,3.01,-18.65,-18.65,0,*74
1537138845.56,11914,18.94,74580.8,3.01,-18.55,-18.69,0,*7C
1537138846.79,11915,18.94,74576.8,2.97,-18.83,-18.69,0,*78
1537138847.98,11916,18.94,74580.0,3.01,-18.99,-18.99,0,*71
1537138849.19,11917,18.88,74582.8,3.01,-19.13,-19.13,0,*70
1537138850.39,11918,18.94,74582.5,3.01,-18.99,-18.99,0,*7F
1537138851.59,11919,18.94,74582.0,3.01,-19.07,-19.13,0,*7B
1537138852.85,11920,18.94,74582.0,3.01,-19.27,-19.31,0,*73
1537138854.11,11921,18.94,74576.0,3.01,-19.27,-19.31,0,*72
1537138855.37,11922,18.94,74582.0,3.01,-19.31,-19.41,0,*71
1537138856.59,11923,18.94,74586.8,3.05,-19.17,-19.23,0,*74
1537138857.86,11924,18.88,74582.3,3.01,-19.27,-19.31,0,*77
1537138859.14,11925,18.94,74586.3,2.97,-19.27,-19.27,0,*7F
1537138860.34,11926,18.94,74582.0,3.01,-18.99,-19.07,0,*74
1537138861.53,11927,18.88,74576.0,3.01,-19.07,-19.07,0,*73
1537138862.75,11928,18.88,74580.3,2.97,-19.07,-19.07,0,*72
1537138864.0,11929,18.94,74582.5,3.01,-19.31,-19.27,0,*7A
1537138865.26,11930,18.94,74582.5,3.01,-19.27,-19.41,0,*75
1537138866.52,11931,18.88,74578.0,3.05,-19.23,-19.23,0,*70
1537138867.77,11932,18.94,74582.8,2.97,-19.41,-19.47,0,*7F
1537138868.99,11933,18.94,74582.0,3.01,-19.41,-19.47,0,*70
1537138870.21,11934,18.88,74580.8,3.01,-19.41,-19.47,0,*77
1537138871.44,11935,18.94,74584.0,3.01,-19.57,-19.47,0,*71
1537138872.66,11936,18.88,74586.3,2.95,-19.47,-19.41,0,*79
1537138873.95,11937,18.88,74580.3,2.97,-19.27,-19.31,0,*7B
1537138875.23,11938,18.94,74584.0,2.97,-19.23,-19.23,0,*73
1537138876.51,11939,18.88,74584.5,2.97,-19.31,-19.41,0,*75
1537138877.8,11940,18.94,74584.8,2.97,-19.27,-19.23,0,*78
1537138879.09,11941,18.94,74588.8,2.97,-19.27,-19.27,0,*7D
1537138880.31,11942,18.94,74590.5,2.97,-19.13,-19.07,0,*7B
1537138881.54,11943,18.94,74588.3,2.97,-19.07,-19.13,0,*7A
1537138882.77,11944,18.94,74584.0,2.97,-19.07,-18.99,0,*7E
1537138884.0,11945,18.94,74586.3,2.97,-19.13,-19.13,0,*79
1537138885.28,11946,18.88,74582.8,2.97,-19.23,-19.23,0,*7A
1537138886.56,11947,18.88,74582.0,2.97,-19.31,-19.41,0,*7C
1537138887.82,11948,18.88,74582.3,3.01,-19.31,-19.41,0,*7D
1537138889.05,11949,18.88,74582.5,2.97,-19.47,-19.47,0,*75
1537138890.27,11950,18.88,74586.8,2.97,-19.47,-19.47,0,*7D
1537138891.53,11951,18.94,74586.3,2.95,-19.61,-19.61,0,*7E
1537138892.78,11952,18.88,74584.0,2.97,-19.41,-19.47,0,*79
1537138894.05,11953,18.94,74590.3,2.97,-19.41,-19.41,0,*7E
1537138895.28,11954,18.94,74586.5,2.97,-19.47,-19.47,0,*79
1537138896.56,11955,18.94,74584.8,2.97,-19.41,-19.41,0,*78
1537138897.79,11956,18.94,74586.3,2.97,-19.47,-19.47,0,*7B
1537138899.01,11957,18.88,74584.8,2.93,-19.47,-19.47,0,*7E
1537138900.23,11958,18.88,74586.8,2.93,-19.47,-19.51,0,*76
1537138901.48,11959,18.94,74588.0,2.93,-19.31,-19.37,0,*76
1537138902.76,11960,18.94,74588.3,2.93,-19.27,-19.27,0,*7A
1537138903.97,11961,18.94,74588.3,2.95,-19.37,-19.37,0,*7D
1537138905.2,11962,18.94,74588.5,2.93,-19.37,-19.37,0,*78
1537138906.42,11963,18.88,74584.3,2.93,-19.17,-19.13,0,*7D
1537138907.65,11964,18.94,74586.5,2.93,-19.13,-19.13,0,*7E
1537138908.94,11965,18.94,74590.3,2.93,-19.27,-19.27,0,*7F
1537138910.17,11966,18.88,74586.3,2.95,-19.31,-19.17,0,*7E
1537138911.42,11967,18.94,74586.0,2.95,-19.31,-19.27,0,*7C
1537138912.65,11968,18.94,74588.3,2.93,-19.17,-19.13,0,*76
1537138913.91,11969,18.88,74584.0,2.93,-19.27,-19.13,0,*74
1537138915.16,11970,18.88,74582.5,2.93,-19.13,-19.27,0,*7C
1537138916.39,11971,18.88,74584.3,2.95,-19.31,-19.37,0,*7A
1537138917.59,11972,18.94,74588.3,2.95,-19.37,-19.47,0,*78
1537138918.87,11973,18.88,74584.8,2.93,-19.31,-19.31,0,*78
1537138920.13,11974,18.88,74586.3,2.95,-19.27,-19.27,0,*79
1537138921.38,11975,18.94,74588.5,2.95,-19.31,-19.27,0,*7F
1537138922.61,11976,18.94,74588.8,2.95,-19.31,-19.17,0,*7F
1537138923.81,11977,18.88,74584.3,2.95,-19.37,-19.37,0,*7A
1537138925.04,11978,18.88,74584.8,2.93,-19.37,-19.47,0,*74
1537138926.26,11979,18.88,74584.3,2.93,-19.37,-19.37,0,*72
1537138927.51,11980,18.94,74588.5,2.93,-19.31,-19.47,0,*75
1537138928.8,11981,18.94,74586.5,2.93,-19.27,-19.27,0,*75
1537138930.08,11982,18.88,74590.0,2.93,-19.27,-19.31,0,*71
1537138931.31,11983,18.88,74586.5,2.93,-19.17,-19.17,0,*77
1537138932.59,11984,18.94,74590.8,2.93,-19.27,-19.31,0,*77
1537138933.82,11985,18.88,74588.0,2.93,-19.37,-19.37,0,*71
1537138935.09,11986,18.88,74584.3,2.93,-19.31,-19.31,0,*72
1537138936.31,11987,18.88,74584.3,2.93,-19.03,-18.99,0,*71
1537138937.53,11988,18.94,74588.3,2.93,-18.99,-18.99,0,*7C
1537138938.77,11989,18.88,74586.8,2.93,-19.03,-18.89,0,*7E
1537138940.0,11990,18.94,74588.3,2.93,-18.89,-18.83,0,*7F
1537138941.22,11991,18.88,74586.0,2.93,-18.99,-18.83,0,*7F
1537138942.42,11992,18.94,74586.5,2.95,-19.13,-18.99,0,*72
1537138943.64,11993,18.88,74584.8,2.93,-19.13,-18.99,0,*75
1537138944.84,11994,18.88,74586.5,2.95,-19.13,-19.03,0,*76
1537138946.06,11995,18.88,74588.8,2.93,-19.13,-19.03,0,*71
1537138947.32,11996,18.88,74584.8,2.95,-19.31,-19.27,0,*72
1537138948.59,11997,18.88,74586.3,2.93,-19.31,-19.27,0,*75
1537138949.8,11998,18.94,74588.5,2.95,-19.37,-19.37,0,*7B
1537138951.08,11999,18.94,74588.3,2.97,-19.31,-19.27,0,*7F
1537138952.33,12000,18.94,74592.3,2.93,-19.17,-19.27,0,*75
1537138953.56,12001,18.88,74592.5,2.93,-19.13,-19.03,0,*76
1537138954.77,12002,18.88,74590.8,2.93,-18.99,-18.83,0,*7F
1537138955.99,12003,18.88,74588.3,2.93,-18.99,-18.83,0,*7E
1537138957.21,12004,18.88,74580.0,2.93,-18.99,-18.83,0,*79
1537138958.4,12005,18.88,74582.5,2.95,-19.03,-18.99,0,*77
1537138959.6,12006,18.88,74580.5,2.95,-19.13,-18.99,0,*75
1537138960.8,12007,18.88,74580.3,2.95,-19.13,-19.17,0,*73
1537138962.06,12008,18.88,74584.5,2.93,-19.17,-19.27,0,*7D
1537138963.31,12009,18.88,74582.3,2.93,-19.17,-19.27,0,*7C
1537138964.59,12010,18.88,74584.5,2.93,-19.27,-19.27,0,*77
1537138965.84,12011,18.88,74586.0,2.93,-19.37,-19.31,0,*70
1537138967.07,12012,18.88,74584.5,2.95,-19.31,-19.37,0,*75
1537138968.33,12013,18.88,74584.8,2.95,-19.27,-19.31,0,*75
1537138969.58,12014,18.88,74584.0,2.93,-19.37,-19.31,0,*75
1537138970.78,12015,18.94,74588.3,2.95,-19.37,-19.37,0,*74
1537138972.0,12016,18.94,74588.3,2.93,-19.47,-19.51,0,*76
1537138973.29,12017,18.88,74586.8,2.97,-19.27,-19.27,0,*74
1537138974.54,12018,18.88,74584.5,2.93,-19.37,-19.31,0,*79
1537138975.75,12019,18.88,74584.5,2.95,-19.37,-19.37,0,*78
1537138976.98,12020,18.88,74588.0,2.95,-19.37,-19.31,0,*74
1537138978.2,12021,18.88,74586.0,2.93,-19.37,-19.37,0,*75
1537138979.46,12022,18.88,74584.3,2.93,-19.17,-19.27,0,*75
1537138980.68,12023,18.88,74584.3,2.93,-19.17,-19.03,0,*72
1537138981.96,12024,18.88,74580.8,2.93,-19.27,-19.27,0,*70
1537138983.21,12025,18.94,74584.0,2.93,-19.31,-19.37,0,*77
1537138984.43,12026,18.88,74584.0,2.93,-19.47,-19.51,0,*75
1537138985.69,12027,18.88,74586.8,2.95,-19.31,-19.31,0,*75
1537138986.97,12028,18.88,74584.0,2.93,-19.27,-19.27,0,*7C
1537138988.19,12029,18.88,74582.0,2.93,-19.47,-19.37,0,*7A
1537138989.42,12030,18.88,74582.8,2.93,-19.51,-19.51,0,*75
1537138990.64,12031,18.94,74584.5,2.93,-19.51,-19.51,0,*74
1537138991.86,12032,18.88,74582.8,2.93,-19.51,-19.51,0,*77
1537138993.12,12033,18.88,74586.5,2.91,-19.65,-19.57,0,*75
1537138994.39,12034,18.88,74586.3,2.91,-19.65,-19.57,0,*72
1537138995.59,12035,18.94,74590.0,2.91,-19.37,-19.37,0,*72
1537138996.82,12036,18.88,74586.8,2.91,-19.57,-19.51,0,*77
1537138998.09,12037,18.88,74588.5,2.91,-19.65,-19.57,0,*71
1537138999.35,12038,18.88,74588.3,2.91,-19.65,-19.57,0,*7E
1537139000.6,12039,18.88,74584.8,2.89,-19.75,-19.61,0,*72
1537139001.86,12040,18.88,74584.5,2.89,-19.71,-19.57,0,*7D
1537139003.11,12041,18.94,74586.5,2.91,-19.41,-19.31,0,*76
1537139004.39,12042,18.88,74586.8,2.89,-19.41,-19.41,0,*7B
1537139005.64,12043,18.88,74586.0,2.89,-19.41,-19.47,0,*7C
1537139006.9,12044,18.88,74586.0,2.89,-19.47,-19.41,0,*7B
1537139008.19,12045,18.88,74584.0,2.89,-19.61,-19.57,0,*79
1537139009.47,12046,18.88,74584.0,2.89,-19.61,-19.61,0,*7F
1537139010.76,12047,18.88,74584.3,2.89,-19.61,-19.61,0,*7E
1537139012.02,12048,18.88,74586.3,2.89,-19.71,-19.61,0,*70
1537139013.27,12049,18.88,74588.0,2.89,-19.75,-19.61,0,*75
1537139014.55,12050,18.88,74584.3,2.89,-19.61,-19.61,0,*78
1537139015.81,12051,18.88,74586.8,2.89,-19.41,-19.37,0,*78
1537139017.07,12052,18.88,74582.3,2.89,-19.37,-19.27,0,*7B
1537139018.3,12053,18.88,74584.3,2.87,-19.47,-19.57,0,*74
1537139019.55,12054,18.88,74584.3,2.89,-19.41,-19.47,0,*7A
1537139020.81,12055,18.94,74584.0,2.89,-19.57,-19.47,0,*7C
1537139022.01,12056,18.88,74586.8,2.87,-19.47,-19.47,0,*70
1537139023.24,12057,18.88,74584.5,2.85,-19.51,-19.47,0,*74
1537139024.47,12058,18.88,74584.0,2.87,-19.47,-19.41,0,*78
1537139025.67,12059,18.88,74586.3,2.87,-19.37,-19.37,0,*7F
1537139026.9,12060,18.88,74584.0,2.85,-19.51,-19.51,0,*77
1537139028.19,12061,18.88,74588.3,2.85,-19.61,-19.57,0,*73
1537139029.48,12062,18.88,74594.0,2.85,-19.61,-19.61,0,*75
1537139030.73,12063,18.88,74590.3,2.85,-19.47,-19.41,0,*72
1537139032.0,12064,18.88,74586.0,2.85,-19.27,-19.17,0,*70
1537139033.28,12065,18.88,74584.5,2.85,-19.41,-19.41,0,*72
1537139034.54,12066,18.88,74586.3,2.89,-19.27,-19.37,0,*7C
1537139035.82,12067,18.88,74582.5,2.85,-19.41,-19.41,0,*70
1537139037.07,12068,18.88,74576.0,2.85,-19.47,-19.41,0,*79
1537139038.35,12069,18.88,74586.5,2.85,-19.41,-19.31,0,*79
1537139039.6,12070,18.88,74582.8,2.85,-19.41,-19.47,0,*70
1537139040.83,12071,18.88,74586.3,2.85,-19.51,-19.51,0,*77
1537139042.06,12072,18.88,74584.0,2.85,-19.47,-19.47,0,*74
1537139043.28,12073,18.88,74582.5,2.87,-19.41,-19.37,0,*76
1537139044.51,12074,18.88,74582.3,2.85,-19.51,-19.51,0,*72
1537139045.77,12075,18.94,74582.0,2.85,-19.61,-19.51,0,*70
1537139047.0,12076,18.88,74578.0,2.85,-19.51,-19.51,0,*70
1537139048.23,12077,18.88,74578.3,2.83,-19.47,-19.31,0,*76
1537139049.45,12078,18.88,74584.3,2.83,-19.47,-19.41,0,*7E
1537139050.66,12079,18.88,74590.3,2.83,-19.51,-19.47,0,*7E
1537139051.86,12080,18.88,74588.8,2.83,-19.51,-19.47,0,*78
1537139053.06,12081,18.88,74586.5,2.83,-19.47,-19.51,0,*79
1537139054.35,12082,18.88,74590.8,2.81,-19.31,-19.27,0,*78
1537139055.59,12083,18.88,74584.5,2.83,-19.27,-19.17,0,*7F
1537139056.82,12084,18.88,74590.3,2.81,-19.47,-19.37,0,*7E
1537139058.02,12085,18.88,74584.0,2.83,-19.47,-19.47,0,*7A
1537139059.23,12086,18.88,74584.0,2.83,-19.51,-19.47,0,*7E
1537139060.43,12087,18.88,74588.5,2.83,-19.47,-19.51,0,*7F
1537139061.63,12088,18.88,74590.0,2.83,-19.47,-19.51,0,*70
1537139062.83,12089,18.88,74584.3,2.83,-19.47,-19.51,0,*71
1537139064.03,12090,18.88,74592.0,2.83,-19.51,-19.51,0,*7E
1537139065.23,12091,18.88,74590.0,2.83,-19.47,-19.47,0,*7F
1537139066.5,12092,18.88,74594.0,2.81,-19.37,-19.31,0,*78
1537139067.75,12093,18.88,74588.3,2.83,-19.41,-19.27,0,*7D
1537139069.01,12094,18.88,74586.3,2.81,-19.57,-19.51,0,*7E
1537139070.3,12095,18.88,74590.3,2.81,-19.57,-19.57,0,*79
1537139071.56,12096,18.88,74588.8,2.81,-19.57,-19.47,0,*7B
1537139072.82,12097,18.88,74586.0,2.81,-19.37,-19.23,0,*7E
1537139074.05,12098,18.88,74584.3,2.81,-19.47,-19.47,0,*74
1537139075.31,12099,18.88,74590.0,2.81,-19.57,-19.51,0,*73
1537139076.57,12100,18.88,74592.8,2.81,-19.57,-19.51,0,*72
1537139077.8,12101,18.88,74590.3,2.81,-19.51,-19.51,0,*75
1537139079.03,12102,18.88,74590.8,2.83,-19.47,-19.41,0,*72
1537139080.29,12103,18.88,74590.5,2.81,-19.57,-19.51,0,*71
1537139081.55,12104,18.88,74588.5,2.81,-19.57,-19.47,0,*71
1537139082.82,12105,18.88,74588.3,2.81,-19.57,-19.47,0,*70
1537139084.08,12106,18.88,74586.5,2.81,-19.57,-19.47,0,*73
1537139085.28,12107,18.88,74588.0,2.79,-19.51,-19.51,0,*74
1537139086.51,12108,18.88,74588.0,2.81,-19.51,-19.47,0,*7B
1537139087.75,12109,18.88,74588.5,2.81,-19.47,-19.37,0,*7A
1537139089.01,12110,18.88,74584.0,2.81,-19.57,-19.37,0,*73
1537139090.21,12111,18.88,74584.5,2.79,-19.47,-19.47,0,*73
1537139091.42,12112,18.88,74586.3,2.79,-19.51,-19.47,0,*77
1537139092.65,12113,18.88,74588.0,2.79,-19.51,-19.31,0,*77
1537139093.89,12114,18.88,74586.5,2.79,-19.37,-19.31,0,*70
1537139095.09,12115,18.88,74584.5,2.75,-19.51,-19.37,0,*7B
1537139096.32,12116,18.88,74590.8,2.75,-19.41,-19.37,0,*79
1537139097.56,12117,18.88,74590.3,2.75,-19.51,-19.31,0,*7F
1537139098.79,12118,18.88,74588.0,2.81,-19.47,-19.37,0,*7A
1537139099.99,12119,18.88,74588.0,2.79,-19.37,-19.07,0,*78
1537139101.21,12120,18.88,74586.3,2.79,-19.31,-19.07,0,*74
1537139102.45,12121,18.88,74584.8,2.75,-19.23,-19.13,0,*7F
1537139103.69,12122,18.88,74586.8,2.79,-19.31,-19.17,0,*77
1537139104.92,12123,18.88,74582.3,2.79,-19.37,-19.31,0,*74
1537139106.13,12124,18.88,74584.0,2.79,-19.37,-19.37,0,*75
1537139107.36,12125,18.88,74582.5,2.81,-19.47,-19.51,0,*74
1537139108.57,12126,18.88,74582.3,2.75,-19.51,-19.37,0,*7B
1537139109.77,12127,18.88,74584.8,2.79,-19.47,-19.47,0,*76
1537139110.98,12128,18.88,74584.0,2.75,-19.51,-19.51,0,*75
1537139112.19,12129,18.88,74584.0,2.79,-19.51,-19.47,0,*7F
1537139113.42,12130,18.88,74582.5,2.79,-19.57,-19.51,0,*76
1537139114.69,12131,18.88,74582.8,2.75,-19.61,-19.57,0,*78
1537139115.95,12132,18.88,74582.0,2.79,-19.57,-19.57,0,*72
1537139117.19,12133,18.88,74584.8,2.75,-19.57,-19.51,0,*79
1537139118.46,12134,18.88,74586.3,2.75,-19.61,-19.57,0,*7D
1537139119.69,12135,18.88,74582.8,2.75,-19.71,-19.61,0,*78
1537139120.9,12136,18.88,74584.5,2.75,-19.71,-19.51,0,*78
1537139122.14,12137,18.88,74586.8,2.75,-19.27,-19.13,0,*7C
1537139123.42,12138,18.88,74584.8,2.73,-19.41,-19.41,0,*72
1537139124.66,12139,18.88,74584.0,2.79,-19.37,-19.31,0,*7F
1537139125.87,12140,18.88,74586.0,2.75,-19.51,-19.37,0,*7B
1537139127.1,12141,18.88,74584.0,2.75,-19.57,-19.51,0,*7C
1537139128.36,12142,18.88,74584.3,2.73,-19.61,-19.47,0,*7B
1537139129.56,12143,18.88,74580.8,2.71,-19.47,-19.47,0,*7C
1537139130.83,12144,18.88,74582.3,2.71,-19.57,-19.57,0,*7B
1537139132.09,12145,18.88,74580.5,2.73,-19.61,-19.47,0,*7C
1537139133.35,12146,18.88,74584.3,2.73,-19.57,-19.51,0,*7D
1537139134.58,12147,18.88,74582.8,2.75,-19.51,-19.41,0,*7D
1537139135.81,12148,18.88,74584.3,2.71,-19.61,-19.47,0,*73
1537139137.07,12149,18.88,74582.3,2.73,-19.57,-19.47,0,*75
1537139138.33,12150,18.88,74582.3,2.73,-19.47,-19.31,0,*7D
1537139139.56,12151,18.88,74584.0,2.71,-19.47,-19.27,0,*79
1537139140.82,12152,18.88,74582.8,2.73,-19.47,-19.41,0,*78
1537139142.07,12153,18.88,74584.3,2.73,-19.47,-19.41,0,*79
1537139143.33,12154,18.88,74586.3,2.71,-19.57,-19.41,0,*7D
1537139144.53,12155,18.88,74586.0,2.71,-19.47,-19.47,0,*7B
1537139145.79,12156,18.88,74580.5,2.69,-19.61,-19.47,0,*75
1537139147.05,12157,18.88,74582.8,2.69,-19.61,-19.51,0,*73
1537139148.28,12158,18.88,74582.5,2.71,-19.61,-19.47,0,*72
1537139149.53,12159,18.88,74582.0,2.73,-19.47,-19.31,0,*74
1537139150.8,12160,18.88,74584.3,2.71,-19.61,-19.57,0,*78
1537139152.03,12161,18.88,74584.8,2.69,-19.51,-19.47,0,*72
1537139153.23,12162,18.88,74582.5,2.71,-19.51,-19.47,0,*78
1537139154.46,12163,18.88,74580.3,2.71,-19.57,-19.47,0,*7F
1537139155.72,12164,18.88,74582.5,2.69,-19.61,-19.51,0,*73
1537139156.95,12165,18.88,74582.8,2.69,-19.51,-19.47,0,*76
1537139158.2,12166,18.88,74584.3,2.67,-19.61,-19.51,0,*7F
1537139159.4,12167,18.88,74582.0,2.71,-19.47,-19.47,0,*7A
1537139160.64,12168,18.88,74588.5,2.69,-19.51,-19.37,0,*7C
1537139161.87,12169,18.88,74588.3,2.67,-19.37,-19.17,0,*71
1537139163.09,12170,18.88,74584.8,2.67,-19.17,-19.07,0,*7A
1537139164.34,12171,18.88,74586.3,2.67,-19.23,-19.17,0,*7D
1537139165.6,12172,18.88,74584.3,2.69,-19.07,-18.93,0,*7B
1537139166.81,12173,18.88,74584.3,2.67,-19.03,-19.03,0,*78
1537139168.04,12174,18.88,74580.8,2.69,-19.17,-19.03,0,*74
1537139169.26,12175,18.88,74582.0,2.69,-19.07,-19.03,0,*74
1537139170.51,12176,18.88,74582.8,2.69,-19.23,-19.07,0,*75
1537139171.77,12177,18.88,74580.0,2.69,-19.23,-19.17,0,*75
1537139173.03,12178,18.88,74582.8,2.69,-19.37,-19.31,0,*7B
1537139174.26,12179,18.88,74580.3,2.71,-19.31,-19.13,0,*75
1537139175.51,12180,18.88,74582.8,2.69,-19.47,-19.23,0,*78
1537139176.76,12181,18.88,74586.0,2.67,-19.37,-19.23,0,*70
1537139177.96,12182,18.88,74580.3,2.71,-19.17,-19.03,0,*74
1537139179.2,12183,18.88,74582.5,2.69,-19.37,-19.17,0,*7B
1537139180.45,12184,18.88,74584.8,2.69,-19.47,-19.31,0,*7F
1537139181.68,12185,18.88,74582.5,2.71,-19.41,-19.17,0,*75
1537139182.93,12186,18.88,74586.3,2.69,-19.37,-19.23,0,*79
1537139184.18,12187,18.88,74584.3,2.69,-19.47,-19.23,0,*7F
1537139185.43,12188,18.88,74582.8,2.69,-19.47,-19.23,0,*70
1537139186.68,12189,18.88,74584.3,2.67,-19.47,-19.31,0,*7C
1537139187.93,12190,18.88,74586.3,2.67,-19.23,-19.07,0,*73
1537139189.17,12191,18.88,74586.0,2.69,-19.23,-19.07,0,*7C
1537139190.43,12192,18.88,74582.3,2.67,-19.23,-19.17,0,*70
1537139191.66,12193,18.88,74584.3,2.69,-19.47,-19.17,0,*7D
1537139192.91,12194,18.88,74584.3,2.69,-19.47,-19.31,0,*7E
1537139194.17,12195,18.88,74584.0,2.69,-19.37,-19.31,0,*78
1537139195.42,12196,18.88,74580.3,2.67,-19.47,-19.23,0,*71
1537139196.67,12197,18.88,74582.5,2.67,-19.37,-19.31,0,*74
1537139197.92,12198,18.88,74586.8,2.67,-19.47,-19.31,0,*7C
1537139199.15,12199,18.88,74584.3,2.69,-19.47,-19.37,0,*75
1537139200.43,12200,18.88,74586.5,2.67,-19.31,-19.23,0,*7C
1537139201.66,12201,18.88,74588.5,2.67,-19.37,-19.17,0,*7C
1537139202.87,12202,18.88,74590.5,2.67,-19.07,-19.07,0,*7D
1537139204.12,12203,18.88,74586.0,2.67,-19.47,-19.23,0,*7E
1537139205.37,12204,18.88,74584.0,2.67,-19.47,-19.31,0,*7A
1537139206.62,12205,18.88,74584.5,2.69,-19.31,-19.07,0,*71
1537139207.89,12206,18.88,74588.3,2.67,-18.93,-18.93,0,*79
1537139209.11,12207,18.88,74588.0,2.67,-19.07,-19.03,0,*7C
1537139210.36,12208,18.88,74584.0,2.67,-19.31,-19.03,0,*76
1537139211.6,12209,18.88,74586.0,2.67,-19.23,-19.07,0,*70
1537139212.85,12210,18.88,74590.3,2.67,-19.23,-19.07,0,*78
1537139214.09,12211,18.88,74588.3,2.67,-19.23,-19.07,0,*79
1537139215.34,12212,18.88,74584.8,2.67,-19.23,-19.17,0,*7B
1537139216.6,12213,18.88,74586.5,2.67,-19.31,-19.17,0,*79
1537139217.85,12214,18.88,74586.3,2.67,-19.31,-19.17,0,*7E
1537139219.1,12215,18.88,74586.5,2.67,-19.31,-19.07,0,*7E
1537139220.32,12216,18.88,74588.3,2.67,-19.07,-19.07,0,*78
1537139221.59,12217,18.88,74590.3,2.67,-18.93,-18.89,0,*72
1537139222.83,12218,18.88,74584.3,2.67,-18.93,-18.79,0,*72
1537139224.08,12219,18.88,74584.0,2.67,-18.93,-18.79,0,*73
1537139225.32,12220,18.88,74582.0,2.67,-19.23,-19.07,0,*7B
1537139226.54,12221,18.88,74582.0,2.67,-19.17,-19.07,0,*7D
1537139227.77,12222,18.88,74582.5,2.67,-19.17,-19.17,0,*7F
1537139229.05,12223,18.88,74580.3,2.67,-19.31,-19.23,0,*7D
1537139230.32,12224,18.88,74582.8,2.67,-19.31,-19.23,0,*7A
1537139231.6,12225,18.88,74580.3,2.67,-19.31,-19.23,0,*7B
1537139232.85,12226,18.88,74582.0,2.67,-19.47,-19.23,0,*79
1537139234.1,12227,18.88,74582.8,2.67,-19.47,-19.31,0,*7B
1537139235.35,12228,18.88,74580.3,2.67,-19.37,-19.31,0,*73
1537139236.6,12229,18.88,74584.5,2.67,-19.37,-19.23,0,*71
1537139237.85,12230,18.88,74586.8,2.67,-19.47,-19.31,0,*7D
1537139239.1,12231,18.88,74590.3,2.67,-19.47,-19.31,0,*7C
1537139240.35,12232,18.88,74588.3,2.67,-19.47,-19.31,0,*7F
1537139241.6,12233,18.88,74586.3,2.67,-19.37,-19.23,0,*7A
1537139242.83,12234,18.88,74584.8,2.65,-19.41,-19.13,0,*7D
1537139244.05,12235,18.88,74590.3,2.65,-19.51,-19.23,0,*7E
1537139245.26,12236,18.88,74590.5,2.65,-19.37,-19.13,0,*7E
1537139246.51,12237,18.88,74588.8,2.63,-19.31,-19.17,0,*7B
1537139247.76,12238,18.88,74588.0,2.63,-19.31,-19.17,0,*74
1537139248.96,12239,18.88,74588.5,2.65,-18.99,-18.83,0,*7C
1537139250.18,12240,18.88,74586.0,2.65,-18.93,-18.83,0,*78
1537139251.4,12241,18.88,74584.5,2.63,-18.99,-18.83,0,*75
1537139252.59,12242,18.88,74586.0,2.65,-19.07,-19.07,0,*7B
1537139253.82,12243,18.88,74588.3,2.63,-19.17,-19.13,0,*78
1537139255.04,12244,18.88,74594.3,2.65,-19.23,-19.07,0,*7B
1537139256.26,12245,18.88,74590.8,2.65,-18.73,-18.59,0,*74
1537139257.51,12246,18.88,74586.5,2.65,-18.01,-17.79,0,*7F
1537139258.73,12247,18.88,74582.0,2.67,-18.25,-18.17,0,*7D
1537139259.96,12248,18.88,74576.8,2.69,-18.25,-18.11,0,*7A
1537139261.21,12249,18.88,74582.3,2.69,-18.17,-18.01,0,*7B
1537139262.43,12250,18.88,74582.3,2.69,-18.45,-18.25,0,*72
1537139263.68,12251,18.88,74582.8,2.67,-18.59,-18.45,0,*76
1537139264.93,12252,18.88,74576.3,2.69,-18.59,-18.45,0,*7B
1537139266.16,12253,18.88,74578.8,2.69,-18.73,-18.73,0,*77
1537139267.36,12254,18.88,74578.0,2.71,-18.83,-18.69,0,*7D
1537139268.62,12255,18.88,74580.3,2.73,-18.99,-18.89,0,*7B
1537139269.82,12256,18.88,74584.5,2.71,-19.13,-18.99,0,*78
1537139271.03,12257,18.88,74580.3,2.71,-19.17,-19.13,0,*7E
1537139272.24,12258,18.88,74582.0,2.71,-19.17,-19.13,0,*71
1537139273.47,12259,18.88,74580.0,2.73,-19.13,-19.03,0,*77
1537139274.67,12260,18.88,74580.3,2.71,-19.17,-19.03,0,*7B
1537139275.91,12261,18.88,74584.5,2.69,-19.37,-19.17,0,*74
1537139277.17,12262,18.88,74586.0,2.69,-19.31,-19.17,0,*71
1537139278.42,12263,18.88,74584.8,2.69,-19.23,-19.17,0,*73
1537139279.67,12264,18.88,74584.3,2.67,-19.03,-18.93,0,*75
1537139280.92,12265,18.88,74586.3,2.69,-18.93,-18.79,0,*76
1537139282.19,12266,18.88,74582.5,2.69,-18.89,-18.89,0,*71
1537139283.44,12267,18.88,74580.8,2.69,-18.79,-18.89,0,*7F
1537139284.67,12268,18.88,74578.8,2.69,-19.07,-19.03,0,*7B
1537139285.92,12269,18.88,74578.5,2.69,-18.93,-19.03,0,*76
1537139287.14,12270,18.88,74582.3,2.69,-19.17,-19.03,0,*73
1537139288.37,12271,18.88,74582.0,2.69,-19.07,-19.17,0,*76
1537139289.6,12272,18.88,74584.8,2.69,-19.17,-19.03,0,*71
1537139290.86,12273,18.88,74584.0,2.69,-19.31,-19.17,0,*71
1537139292.09,12274,18.88,74584.8,2.71,-19.27,-19.03,0,*7D
1537139293.34,12275,18.88,74584.5,2.69,-19.23,-19.07,0,*75
1537139294.53,12276,18.88,74584.3,2.71,-19.03,-18.99,0,*7B
1537139295.76,12277,18.88,74584.0,2.69,-19.17,-19.07,0,*70
1537139296.98,12278,18.88,74584.0,2.69,-19.07,-19.07,0,*7E
1537139298.2,12279,18.88,74586.3,2.69,-19.07,-19.03,0,*7B
1537139299.45,12280,18.88,74584.8,2.67,-19.17,-18.93,0,*7A
1537139300.71,12281,18.88,74584.8,2.69,-19.03,-18.93,0,*70
1537139301.93,12282,18.88,74586.5,2.69,-19.07,-19.03,0,*7F
1537139303.18,12283,18.88,74590.5,2.69,-18.93,-18.79,0,*7E
1537139304.43,12284,18.88,74582.3,2.69,-18.89,-18.73,0,*78